Location: ??????
(55.7522°N, 37.6156°E)
Time: 17:48:41
(UTC+00:00)

Cosmos 2227 Rocket - Pass Details

Date: 14 June 2025
Orbit: 836 x 845 km, 71.0° (Epoch: 12 July)

Event Time Altitude Azimuth Distance (km) Brightness Sun altitude
Rises 21:41:35 0° 263° (W) 3,393 5.2 -10.9°
Reaches altitude 10° 21:44:27 10° 276° (W) 2,463 4.7 -10.9°
Maximum altitude 21:49:06 26° 332° (NNW) 1,625 4.4 -10.8°
Drops below altitude 10° 21:53:47 10° 28° (NNE) 2,475 5.8 -10.8°
Sets 21:56:41 0° 41° (NE) 3,413 6.4 -10.7°
